Meteo Giornale » Osservazioni meteo Italia » Cagliari-Elmas

ore: 06:20 - Osservazioni Meteo Cagliari-Elmas
Lat. 39° 15' N Lon. 9° 4' E Alt. 4 metri s.l.m.

sereno Europe/Rome

25 °C

Sereno

Temp. 24 Ore

24 °C

32 °C

Nord/NOvest

16.7 Km/h

Dew point 21 °C

Umidità 78 %

Visibilità  10 Km

Il sole sorge alle ore 06:16

Il sole tramonta alle ore 20:44

Data e Ora Cielo e Fenomeni T °C DP °C Um. % Pres. hPa Vis. km Vento km/h
Oggi h: 06:20 sereno Sereno 25 21 78 1011 10 N/NO 16.7
Oggi h: 05:50 sereno Sereno 25 22 83 1011 10 N/NO 20.3
Oggi h: 05:20 sereno Sereno 25 22 83 1011 10 NO 20.3
Oggi h: 04:20 sereno Sereno 25 22 83 1011 10 NO 11.1
Oggi h: 03:50 sereno Sereno 26 23 83 1011 10 N/NO 9.3
Oggi h: 03:20 sereno Sereno 26 23 83 1012 10 N 5.5
Oggi h: 02:50 sereno Sereno 27 23 78 1012 10 N 5.5
Oggi h: 02:20 sereno Sereno 27 23 78 1012 10 S/SE 7.4
Oggi h: 01:50 sereno Sereno 27 23 78 1012 10 E/SE 7.4
Oggi h: 01:20 coperto_pioggia Pioggia Debole 27 23 78 1011 10 E 37
Oggi h: 00:50 coperto_pioggia Pioggia Debole 27 23 78 1016 10 N 29.6
Oggi h: 00:20 sereno Sereno 26 24 88 1017 10 N 7.4
Ieri h: 23:50 poco_nuvoloso Poco Nuvoloso 27 25 88 1016 10 SE 14.8
Ieri h: 23:20 poco_nuvoloso Poco Nuvoloso 27 25 88 1017 10 S/SE 13
Ieri h: 22:50 poco_nuvoloso Poco Nuvoloso 27 25 88 1016 10 S/SE 18.5
Ieri h: 22:20 poco_nuvoloso Poco Nuvoloso 27 25 88 1016 10 S 13
Ieri h: 21:50 poco_nuvoloso Poco Nuvoloso 27 25 88 1015 10 S/SE 16.7
Ieri h: 21:20 poco_nuvoloso Poco Nuvoloso 27 25 88 1015 10 SE 16.7
Ieri h: 20:50 poco_nuvoloso Poco Nuvoloso 27 25 88 1015 10 S/SE 16.7
Ieri h: 20:20 poco_nuvoloso Poco Nuvoloso 27 25 88 1014 10 S/SE 16.7
Ieri h: 19:50 sereno Sereno 27 25 88 1014 10 S/SE 18.5
Ieri h: 19:20 sereno Sereno 27 25 88 1014 10 S/SE 20.3
Ieri h: 18:50 sereno Sereno 28 25 83 1015 10 SE 20.3
Ieri h: 18:20 sereno Sereno 28 25 83 1015 10 SE 20.3
Ieri h: 17:50 sereno Sereno 29 25 79 1015 10 S/SE 24
Ieri h: 17:20 sereno Sereno 29 25 79 1015 10 S/SE 20.3
Ieri h: 16:50 sereno Sereno 30 25 74 1015 10 S/SE 16.7
Ieri h: 16:20 sereno Sereno 30 24 70 1015 10 S/SE 18.5
Ieri h: 15:50 sereno Sereno 31 24 66 1016 10 SE 18.5
Ieri h: 15:20 sereno Sereno 31 24 66 1016 10 SE 20.3
Ieri h: 14:50 sereno Sereno 31 23 62 1016 10 S/SE 18.5
Ieri h: 14:20 sereno Sereno 31 23 62 1016 10 S 16.7
Ieri h: 13:50 sereno Sereno 32 23 59 1017 10 S 13
Ieri h: 13:20 sereno Sereno 32 22 55 1016 10 S/SE 13
Ieri h: 12:50 sereno Sereno 32 22 55 1016 10 S 11.1
Ieri h: 12:20 sereno Sereno 31 24 66 1016 10 S/SE 11.1
Ieri h: 11:50 sereno Sereno 31 23 62 1016 10 SE 13
Ieri h: 11:20 sereno Sereno 31 21 55 1016 10 S 7.4
Ieri h: 10:50 sereno Sereno 30 21 58 1016 10 S 7.4
Ieri h: 10:20 sereno Sereno 28 23 74 1016 10 S 7.4
Ieri h: 09:50 sereno Sereno 28 22 69 1016 10 S/SO 7.4
Ieri h: 09:20 sereno Sereno 28 23 74 1016 10 N 3.7
Ieri h: 08:50 sereno Sereno 27 23 78 1016 10 N 5.5
Ieri h: 08:20 sereno Sereno 27 23 78 1016 10 N 3.7
Ieri h: 07:50 sereno Sereno 26 23 83 1016 10 N 5.5
Ieri h: 07:20 sereno Sereno 25 23 88 1015 10 E/NE 7.4
Ieri h: 06:50 sereno Sereno 24 21 83 1015 9 NE 7.4